Printer-friendly version

IAU Minor Planet Center

Minor Planet Center

MPEC 2003-L10 : 2003 LH

The following Minor Planet Electronic Circular may be linked-to from your own Web pages, but must not otherwise be redistributed electronically.


Read MPEC 2003-L09 Read MPEC 2003-L11


M.P.E.C. 2003-L10                                Issued 2003 June 3, 17:40 UT

     The Minor Planet Electronic Circulars contain information on unusual
         minor planets and routine data on comets.  They are published
   on behalf of Commission 20 of the International Astronomical Union by the
          Minor Planet Center, Smithsonian Astrophysical Observatory,
                          Cambridge, MA 02138, U.S.A.

             Prepared using the Tamkin Foundation Computer Network

                              MPC@CFA.HARVARD.EDU
          URL http://cfa-www.harvard.edu/iau/mpc.html  ISSN 1523-6714

                                    2003 LH

Observations:
     K03L00H* C2003 06 02.21990 14 14 37.20 +16 55 07.2          18.2        704
     K03L00H  C2003 06 02.23062 14 14 45.59 +16 57 02.4          18.7        704
     K03L00H  C2003 06 02.24155 14 14 54.17 +16 58 58.8          18.7        704
     K03L00H  C2003 06 02.25240 14 15 02.69 +17 00 53.4          19.0        704
     K03L00H  C2003 06 02.86193 14 23 47.00 +18 37 56.3                      246
     K03L00H  C2003 06 02.86227 14 23 47.25 +18 37 59.2                      246
     K03L00H  C2003 06 02.86262 14 23 47.49 +18 38 02.5                      246
     K03L00H  C2003 06 02.86317 14 23 47.83 +18 38 07.3                      246
     K03L00H  C2003 06 02.86379 14 23 48.27 +18 38 12.6                      246
     K03L00H  C2003 06 02.86534 14 23 49.27 +18 38 25.6                      246
     K03L00H  C2003 06 02.86697 14 23 54.24 +18 39 32.4          17.7 R      620
     K03L00H  C2003 06 02.87045 14 23 56.51 +18 40 03.3          18.1 R      620
     K03L00H  C2003 06 02.99982 14 25 23.73 +18 57 09.1          19.0 R      J95
     K03L00H  C2003 06 03.01288 14 25 32.48 +18 58 54.5          19.0 R      J95
     K03L00H  C2003 06 03.02350 14 25 39.65 +19 00 19.4          19.3 R      J95
     K03L00H  C2003 06 03.15622 14 27 34.93 +19 20 17.0          18.4 R      G90
     K03L00H  C2003 06 03.15769 14 27 35.72 +19 20 27.8          18.3 R      G90
     K03L00H  C2003 06 03.16524 14 27 40.24 +19 21 28.8          18.2 R      G90
     K03L00H  C2003 06 03.18273 14 27 48.04 +19 24 01.4          18.2 R      711
     K03L00H  C2003 06 03.18559 14 27 49.69 +19 24 25.5          18.0 R      711
     K03L00H  C2003 06 03.18845 14 27 51.39 +19 24 47.4          18.5 R      711
     K03L00H  C2003 06 03.21632 14 28 10.13 +19 28 21.1          18.4 R      926
     K03L00H  C2003 06 03.21699 14 28 10.48 +19 28 25.6          19.1 R      926
     K03L00H  C2003 06 03.21764 14 28 10.87 +19 28 31.0          18.9 R      926

Observer details:
246 Klet Observatory-KLENOT.  Observer M. Tichy.  1.06-m KLENOT Telescope
    + CCD.
620 Observatorio Astronomico de Mallorca.  Observers S. Sanchez, R. Stoss,
    J. Nomen.  0.30-m f/9 Schmidt-Cassegrain + CCD.
704 Lincoln Laboratory ETS, New Mexico.  Observers M. Blythe, F. Shelly,
    M. Bezpalko, R. Huber, L. Manguso, S. Adams, D. Torres, T. Brothers,
    S. Partridge.  Measurers J. Stuart, R. Sayer, J. Evans, P. Hopman.  1.0-m
    f/2.15 reflector + CCD.
711 McDonald Observatory.  Observer P. J. Shelus.  0.76-m reflector with prime
    focus corrector + CCD.
926 Tenagra II Observatory.  Observers P. R. Holvorcem, M. Schwartz.  0.81-m
    f/7 Ritchey-Chretien + CCD.
G90 Three Buttes Observatory, Tucson.  Observer G. R. Jones.  0.32-m
    Ritchey-Chretien + CCD.
J95 Great Shefford.  Observer P. Birtwhistle.  0.30-m f/6.3 Schmidt-Cassegrain
    + CCD.

Orbital elements:
2003 LH
Epoch 2003 June 10.0 TT = JDT 2452800.5                 MPC
M 118.18070              (2000.0)            P               Q
n   1.04684335     Peri.  238.06043     -0.56672923     -0.80556477
a   0.9606125      Node   247.43112     +0.80492425     -0.49657349
e   0.1500569      Incl.   10.78968     +0.17582642     -0.32323392
P   0.94           H   24.8           G   0.15           U   7
Residuals in seconds of arc
030602 704  0.0   0.2-    030602 246  0.1+  0.1-    030603 G90  0.0   0.5+
030602 704  0.2-  0.1+    030602 246  0.4-  0.6-    030603 G90  0.2+  0.2+
030602 704  0.1+  0.1+    030602 620  0.2-  0.2+    030603 711  0.3-  1.1-
030602 704  0.3+  0.1+    030602 620  0.3-  0.5+    030603 711  0.6-  0.4+
030602 246  0.1-  0.1-    030602 J95  0.5+  0.0     030603 711  0.1-  0.3-
030602 246  0.2+  0.2-    030603 J95  0.4+  0.1-    030603 926  0.1+  0.2+
030602 246  0.2+  0.0     030603 J95  0.7+  0.4-    030603 926  0.5-  0.5-
030602 246  0.2-  0.0     030603 G90  1.2+  1.6+    030603 926  0.3-  0.2-

Ephemeris:
2003 LH                  a,e,i = 0.96, 0.15, 11                  q = 0.8165
Date    TT    R. A. (2000) Decl.     Delta      r     Elong.  Phase     V
2003 05 31    13 25.17   +06 28.6    0.015    1.023   126.7    52.7    17.6
2003 06 02    14 11.16   +16 15.7    0.021    1.027   127.4    51.6    18.4
2003 06 04    14 36.62   +20 59.5    0.028    1.031   126.4    52.4    19.0
2003 06 06    14 52.55   +23 35.9    0.036    1.036   125.2    53.2    19.6
2003 06 08    15 03.48   +25 10.6    0.043    1.040   124.0    54.0    20.0
2003 06 10    15 11.50   +26 11.4    0.051    1.044   123.0    54.7    20.4
2003 06 12    15 17.70   +26 51.4    0.058    1.048   122.1    55.2    20.7
2003 06 14    15 22.69   +27 17.9    0.066    1.051   121.2    55.7    21.0
2003 06 16    15 26.85   +27 34.9    0.074    1.055   120.4    56.2    21.3
2003 06 18    15 30.40   +27 44.8    0.082    1.059   119.6    56.6    21.5
2003 06 20    15 33.53   +27 49.1    0.089    1.062   118.8    57.0    21.7

Kyle E. Smalley              (C) Copyright 2003 MPC           M.P.E.C. 2003-L10

Read MPEC 2003-L09 Read MPEC 2003-L11


Our Web policy. Index to the CBAT/MPC/ICQ pages.


Valid HTML 4.01!